[Iaude] MPEC V55: 2016 VV1 [a=1.39,e=0.25,i=12.9,H=23.6]

mpec at si.edu mpec at si.edu
Mon Nov 7 07:07:40 EST 2016


M.P.E.C. 2016-V55                                Issued 2016 Nov. 7, 12:02 UT
 
     The Minor Planet Electronic Circulars contain information on unusual
         minor planets and routine data on comets.  They are published
    on behalf of Division F of the International Astronomical Union by the
          Minor Planet Center, Smithsonian Astrophysical Observatory,
                          Cambridge, MA 02138, U.S.A.

             Prepared using the Tamkin Foundation Computer Network

                              MPC at CFA.HARVARD.EDU
            URL http://www.minorplanetcenter.net/    ISSN 1523-6714


                                   2016 VV1
 
Observations:
     K16V01V* C2016 11 05.41577 03 42 26.645+01 16 55.65         20.5 wLEV055F51
     K16V01V  C2016 11 05.42883 03 42 23.998+01 18 19.43         20.7 wLEV055F51
     K16V01V  C2016 11 05.44193 03 42 21.339+01 19 43.63         20.5 wLEV055F51
     K16V01V  C2016 11 05.45505 03 42 18.675+01 21 07.72         20.5 wLEV055F51
     K16V01V  C2016 11 06.21992 03 40 05.67 +02 42 14.8          20.3 RoEV055926
     K16V01V  C2016 11 06.22385 03 40 04.91 +02 42 40.1          20.2 RoEV055926
     K16V01V  C2016 11 06.22775 03 40 04.16 +02 43 04.8          20.1 RoEV055926
     K16V01V  C2016 11 06.29319 03 39 51.32 +02 49 58.0          20.2 VoEV055691
     K16V01V  C2016 11 06.29884 03 39 50.15 +02 50 35.1          20.9 VoEV055691
     K16V01V  C2016 11 06.30445 03 39 49.03 +02 51 09.9          20.0 VoEV055691
     K16V01V _C2016 11 06.50316103 39 12.248+03 12 15.54         20.2 GUEV055568
     K16V01V _C2016 11 06.50420703 39 12.038+03 12 22.09         20.2 GUEV055568
     K16V01V _C2016 11 06.50524903 39 11.830+03 12 28.64         20.2 GUEV055568
     K16V01V KC2016 11 07.44424 03 36 26.81 +04 49 43.9          20.7 RoEV055291
     K16V01V KC2016 11 07.44495 03 36 26.68 +04 49 48.7          20.4 RoEV055291
     K16V01V KC2016 11 07.44566 03 36 26.51 +04 49 52.7          20.6 RoEV055291
 
Observer details:
291 LPL/Spacewatch II.  Observer A. F. Tubbiolo.  1.8-m f/2.7 reflector + CCD.
568 Mauna Kea.  Observers R. J. Wainscoat, C. Wipper.  Measurers M. Micheli,
    R. J. Wainscoat.  3.6-m Canada-France-Hawaii Telescope + CCD.
691 Steward Observatory, Kitt Peak.  Observer A. F. Tubbiolo.  0.9-m f/3
    reflector + CCD.
926 Tenagra II Observatory.  Observers M. Schwartz, P. R. Holvorcem.  Measurer
    M. Schwartz.  0.81-m f/7 Ritchey-Chretien + CCD.
F51 Pan-STARRS 1, Haleakala.  Observers B. Gibson, T. Goggia, S. Kahale,
    A. Schultz, M. Willman.  Measurers K. Chambers, S. Chastel, L. Denneau,
    H. Flewelling, M. Huber, E. Lilly, E. Magnier, R. Wainscoat, C. Waters,
    R. Weryk.  1.8-m Ritchey-Chretien + CCD.
 
Orbital elements:
2016 VV1                                                 Earth MOID = 0.1218 AU
Epoch 2016 July 31.0 TT = JDT 2457600.5                 MPC
M 331.23571              (2000.0)            P               Q
n   0.60358771     Peri.  301.24791     +0.97869866     +0.09969045
a   1.3866785      Node    53.63546     +0.00566802     +0.86073893
e   0.2503937      Incl.   12.87802     -0.20522379     +0.49918966
P   1.63           H   23.6           G   0.15           U   7
Residuals in seconds of arc
161105 F51  0.0   0.2+    161106 926  0.3+  0.2+    161106 568  0.2+  0.2-
161105 F51  0.0   0.0     161106 691  0.4+  0.6-    161107 291  0.1+  0.2-
161105 F51  0.0   0.0     161106 691  0.3-  0.8+    161107 291  0.1+  0.3+
161105 F51  0.0   0.2-    161106 691  0.4-  0.1+    161107 291  0.4-  0.1-
161106 926  0.1+  0.2-    161106 568  0.2+  0.1-
161106 926  0.2+  0.2+    161106 568  0.2+  0.2-

Ephemeris:
2016 VV1                 a,e,i = 1.39, 0.25, 13                  q = 1.0395
Date    TT    R. A. (2000) Decl.     Delta      r     Elong.  Phase     V
2016 10 08    04 56 20.7 -42 57 03   0.1554  1.0548   106.9    65.0    22.0
...
2016 10 23    04 21 53.6 -22 59 55   0.1305  1.0826   129.5    45.2    21.1
...
2016 10 31    03 58 40.3 -08 40 43   0.1280  1.1022   146.9    29.5    20.6
...
2016 11 06    03 40 42.1 +02 19 27   0.1342  1.1188   160.7    17.0    20.4
2016 11 07    03 37 46.6 +04 04 19   0.1360  1.1217   163.0    15.0    20.4
2016 11 08    03 34 53.4 +05 46 49   0.1380  1.1246   165.2    13.0    20.3
...
2016 11 14    03 18 40.6 +15 00 04   0.1539  1.1430   176.8     2.8    20.1
...
2016 11 22    03 01 10.9 +24 11 37   0.1851  1.1692   167.8    10.3    20.9
...
2016 12 07    02 44 35.3 +33 44 31   0.2668  1.2222   149.3    24.3    22.3

A. U. Tomatic                (C) Copyright 2016 MPC           M.P.E.C. 2016-V55




More information about the Iaude mailing list